Regional Weather Roundup
Issued by NWS Sioux Falls, SD

Home | Current Version | Previous Version | Graphics & Text | Print | Product List | Glossary Off
Versions: 1 2 3 4 5 6 7 8 9 10 11 12 13 14 15 16 17 18 19 20 21 22 23 24 25 26 27 28 29 30 31 32 33 34 35 36 37 38 39 40 41 42 43 44 45 46 47 48 49 50

000
ASUS43 KFSD 030410
RWRFSD

WEATHER ROUNDUP FOR SE SOUTH DAKOTA/SW MINNESOTA/NW IOWA
NATIONAL WEATHER SERVICE SIOUX FALLS SD
1100 PM CDT TUE SEP 02 2014

NOTE: "FAIR" INDICATES FEW OR NO CLOUDS BELOW 12,000 FEET WITH NO
SIGNIFICANT WEATHER AND OR OBSTRUCTIONS TO VISIBILITY.


SDZ038>040-050-052>070-030500-
SOUTHEAST SOUTH DAKOTA

CITY           SKY/WX    TMP DP  RH WIND       PRES   REMARKS
CHAMBERLAIN    MOCLDY    67  58  73 SE9       29.79S
HURON          CLEAR     66  58  75 S10       29.80S
MADISON        FAIR      61  61 100 S9        29.88S
MITCHELL       CLEAR     68  61  78 S10       29.83S
SIOUX FALLS    PTCLDY    68  58  70 S12       29.88S
WINNER         FAIR      72  61  68 S16       29.78F
YANKTON        CLEAR     64  57  77 SE8       29.87F
$$

MNZ071-072-080-081-089-090-097-098-030500-
SOUTHWEST MINNESOTA

CITY           SKY/WX    TMP DP  RH WIND       PRES   REMARKS
FAIRMONT       MOCLDY    61  54  77 S6        29.92S
JACKSON        MOCLDY    59  55  88 S5        29.93S
LUVERNE        CLEAR     59  54  82 CALM      29.90F
MARSHALL       PTCLDY    63  54  72 S8        29.86S
MONTEVIDEO     PTCLDY    64  55  72 SW8       29.85S
PIPESTONE      CLEAR     61  55  82 SE3       29.90S
REDWOOD FALLS  PTCLDY    62  58  86 S8        29.88R
TRACY          PTCLDY    65  57  75 S10       29.89S
WINDOM         MOCLDY    63  55  77 S7        29.92R
WORTHINGTON    PTCLDY    61  57  88 S6        29.93S
$$

IAZ001>003-012>014-020>022-031-032-NEZ013-014-SDZ071-030500-
NORTHWEST IOWA

CITY           SKY/WX    TMP DP  RH WIND       PRES   REMARKS
CHEROKEE       CLEAR     60  59  98 CALM      29.94S
DENISON        CLEAR     63  61  94 SE3       29.95S
ESTHERVILLE    MOCLDY    60  58  92 S7        29.93R
LE MARS          N/A     63  59  88 S5        29.92F
ORANGE CITY    PTCLDY    64  57  77 S7        29.92F
SHELDON        PTCLDY    59  59 100 S5        29.92S
SIOUX CITY     PTCLDY    66  60  81 SE7       29.92F
SPENCER        PTCLDY    62  58  86 S8        29.93S
STORM LAKE     CLEAR     61  61 100 S6        29.96R
$$

ABBREVIATIONS USED IN REMARKS
   TC - TEMPERATURE IN CELSIUS
  WCI - WIND CHILL INDEX
   HX - HEAT INDEX
  VSB - VISIBILITY




USA.gov is the U.S. government's official web portal to all federal, state and local government web resources and services.